Date,TemperatureHighF,TemperatureAvgF,TemperatureLowF,DewpointHighF,DewpointAvgF,DewpointLowF,HumidityHigh,HumidityAvg,HumidityLow,PressureMaxIn,PressureMinIn,WindSpeedMaxMPH,WindSpeedAvgMPH,GustSpeedMaxMPH,PrecipitationSumIn
2013-1-1,47.4,42.0,37.4,45.8,38.3,35.0,95,87,70,30.07,29.52,13,4,20,0.06
2013-1-2,51.0,44.7,37.4,49.4,42.7,35.0,96,93,89,30.35,30.07,11,4,17,0.02
2013-1-3,52.7,50.6,48.9,49.9,48.6,47.1,96,93,90,30.63,30.35,11,4,18,0.00
2013-1-4,50.1,48.7,46.4,46.9,45.5,43.8,94,89,84,30.66,30.61,10,4,17,0.00
2013-1-5,51.1,48.3,45.1,48.3,46.4,43.8,97,93,87,30.62,30.53,9,2,18,0.00
2013-1-6,47.5,45.5,43.1,45.7,44.4,42.1,98,96,92,30.54,30.41,10,2,15,0.00
2013-1-7,48.7,46.4,44.4,46.3,44.6,42.4,96,93,90,30.41,30.25,10,4,16,0.00
2013-1-8,51.7,49.6,47.2,48.4,47.0,45.0,97,91,86,30.28,30.19,14,5,21,0.06
2013-1-9,49.5,44.1,32.8,48.7,41.9,31.3,97,92,82,30.20,30.08,9,2,12,0.06
2013-1-10,39.9,37.1,32.0,38.6,35.8,30.5,97,95,91,30.09,29.94,8,1,12,0.00
2013-1-11,44.2,39.1,34.6,40.8,37.2,33.6,100,93,86,30.10,29.98,6,1,8,0.00
2013-1-12,40.1,38.0,35.2,37.6,34.7,31.0,97,88,70,29.98,29.84,16,6,24,0.13
2013-1-13,39.6,35.4,31.4,35.0,31.0,27.7,88,84,75,30.16,29.96,12,4,16,0.00
2013-1-14,37.8,34.2,31.5,36.2,32.3,29.5,96,93,86,30.12,29.66,13,3,20,0.19
2013-1-15,39.5,33.9,27.2,33.8,31.0,25.4,94,89,79,29.89,29.66,16,4,20,0.00
2013-1-16,34.2,29.3,25.5,31.2,27.5,23.8,100,93,87,30.04,29.85,7,1,12,0.00
2013-1-17,35.2,31.8,27.5,31.5,29.0,25.8,94,89,81,30.09,29.88,9,1,16,0.00
2013-1-18,35.1,31.2,29.2,30.6,28.4,27.3,94,89,78,29.88,29.43,15,6,20,0.24
2013-1-19,33.3,31.6,30.3,31.5,29.2,26.8,95,91,86,29.50,29.41,12,4,17,0.01
2013-1-20,32.6,30.8,29.2,31.1,28.7,26.1,95,92,84,29.49,29.30,12,4,20,0.13
2013-1-21,35.9,31.8,28.1,32.0,29.5,26.3,95,91,82,29.51,29.28,5,1,7,0.00
2013-1-22,35.9,31.6,24.6,34.0,29.8,22.8,97,93,85,29.69,29.51,91,4,109,0.10
2013-1-23,36.0,34.7,33.6,33.3,32.1,30.8,93,90,85,29.81,29.68,13,4,23,0.01
2013-1-24,35.4,34.3,32.9,31.7,30.7,28.6,92,87,81,30.16,29.81,7,2,12,0.02
2013-1-25,38.0,34.7,32.3,35.9,30.7,27.8,94,85,78,30.14,29.56,18,6,26,0.04
2013-1-26,47.0,41.9,36.2,43.4,39.1,34.6,96,90,78,29.85,29.54,21,6,34,0.18
2013-1-27,50.4,45.9,39.8,48.9,40.9,35.3,96,83,59,29.64,29.29,23,8,37,0.26
2013-1-28,51.0,43.8,36.8,48.0,40.6,34.2,95,88,80,29.83,29.53,25,8,40,0.20
2013-1-29,55.9,52.8,48.2,53.3,50.6,45.6,97,92,83,29.68,29.56,20,9,35,0.10
2013-1-30,54.7,49.2,44.0,52.7,43.5,37.9,96,81,61,30.06,29.52,21,8,37,0.31
2013-1-31,50.9,47.3,44.2,45.7,41.4,38.4,94,80,66,30.06,29.81,23,8,36,0.17
2013-2-1,46.0,42.0,38.3,41.8,39.2,36.1,95,90,79,29.87,29.47,13,3,22,0.26
2013-2-2,44.1,38.6,30.0,37.7,31.6,26.0,92,76,59,30.27,29.63,16,6,24,0.00
2013-2-3,48.4,40.9,29.6,46.0,37.6,26.0,92,88,82,30.28,29.93,14,4,24,0.00
2013-2-4,51.7,47.5,42.7,46.8,40.3,34.4,91,77,56,29.97,29.73,18,8,30,0.00
2013-2-5,44.4,40.0,35.2,38.2,33.1,27.3,93,77,55,29.73,29.37,19,8,32,0.12
2013-2-6,42.7,40.0,35.6,38.5,33.5,27.5,91,78,67,30.09,29.40,21,9,30,0.06
2013-2-7,43.2,37.1,32.0,35.8,31.6,27.2,92,81,65,30.14,30.01,10,4,16,0.02
2013-2-8,43.5,37.7,31.6,36.4,33.8,30.1,100,86,71,30.17,30.05,10,4,15,0.00
2013-2-9,38.2,36.6,35.1,37.0,34.6,32.5,96,93,87,30.18,29.86,8,2,12,0.07
2013-2-10,41.7,38.6,34.1,40.6,37.5,32.6,97,96,93,29.86,29.25,15,6,23,0.72
2013-2-11,35.0,33.9,33.2,34.0,32.8,32.2,100,96,94,29.79,29.28,11,4,17,0.17
2013-2-12,35.4,34.2,33.3,32.8,30.9,28.9,96,88,83,30.15,29.79,8,3,12,0.00
2013-2-13,40.2,35.0,32.7,38.9,31.0,26.4,96,86,70,30.21,29.97,18,5,24,0.05
2013-2-14,52.2,45.9,38.1,46.9,42.0,36.3,97,87,67,30.00,29.75,18,6,25,0.08
2013-2-15,52.1,41.6,32.9,41.9,36.1,31.6,97,82,51,30.22,30.00,10,2,15,0.00
2013-2-16,51.2,43.4,37.7,42.5,37.8,35.4,93,81,61,30.26,30.20,7,1,10,0.01
2013-2-17,51.1,39.6,32.2,41.2,34.8,30.9,97,85,52,30.22,30.10,12,3,18,0.00
2013-2-18,49.1,39.3,32.4,38.0,34.5,30.3,100,84,62,30.16,30.10,10,2,15,0.01
2013-2-19,53.7,37.3,27.0,39.8,32.0,25.5,96,83,50,30.15,30.06,5,0,7,0.00
2013-2-20,43.2,36.8,30.8,38.0,31.9,27.3,100,83,62,30.26,30.11,15,5,25,0.02
2013-2-21,36.4,34.1,31.4,27.7,24.1,21.4,76,67,58,30.27,30.17,15,6,25,0.00
2013-2-22,35.7,33.5,32.0,26.3,23.8,21.4,75,67,59,30.18,30.11,15,6,21,0.00
2013-2-23,37.0,33.5,30.0,30.0,26.9,24.4,90,77,65,30.23,30.11,16,5,21,0.01
2013-2-24,36.0,33.9,31.3,29.7,28.3,26.4,89,80,71,30.30,30.22,12,6,17,0.00
2013-2-25,39.1,37.1,33.8,35.8,33.5,27.7,90,87,78,30.40,30.28,16,6,26,0.00
2013-2-26,40.3,38.5,36.3,38.6,36.8,34.5,100,94,89,30.57,30.40,13,5,20,0.03
2013-2-27,43.7,37.9,35.2,37.1,34.6,32.3,95,88,71,30.58,30.49,14,5,18,0.01
2013-2-28,47.2,39.5,33.7,37.7,34.5,31.4,92,83,65,30.50,30.34,12,5,20,0.00
2013-3-1,44.1,39.8,35.9,40.3,34.7,30.7,96,82,66,30.42,30.38,12,4,18,0.02
2013-3-2,41.4,36.7,28.1,33.2,30.7,26.0,93,79,71,30.42,30.29,8,2,12,0.00
2013-3-3,44.6,35.9,25.4,37.0,31.9,23.7,95,86,71,30.30,30.11,11,2,18,0.01
2013-3-4,52.4,40.6,32.4,38.2,34.7,30.5,94,81,55,30.11,29.75,13,3,18,0.00
2013-3-5,61.8,45.1,29.7,44.5,37.6,28.4,97,77,51,29.75,29.59,12,2,20,0.00
2013-3-6,56.7,49.5,43.2,45.2,42.4,38.3,89,77,64,29.59,29.51,7,2,12,0.01
2013-3-7,49.9,47.5,44.9,48.0,46.1,43.5,97,95,89,29.51,29.37,7,2,13,0.26
2013-3-8,50.9,49.0,46.9,49.8,48.2,46.1,98,97,96,29.55,29.38,8,1,12,0.35
2013-3-9,46.9,43.5,38.4,46.1,41.9,35.3,97,94,88,29.68,29.54,10,2,13,0.01
2013-3-10,39.2,36.5,33.4,35.4,32.4,28.3,91,85,80,29.75,29.67,14,7,26,0.00
2013-3-11,33.9,31.6,28.3,28.5,23.5,18.4,82,72,57,29.78,29.73,22,11,34,0.00
2013-3-12,41.8,34.2,27.9,32.1,24.0,18.3,85,67,43,29.85,29.76,20,10,33,0.00
2013-3-13,46.2,37.8,30.1,31.8,28.7,25.0,89,71,47,29.97,29.82,14,4,20,0.00
2013-3-14,47.2,36.3,24.9,32.7,26.2,22.2,100,70,41,30.05,29.93,9,2,13,0.00
2013-3-15,47.8,42.7,36.1,43.5,38.9,28.8,94,87,75,29.93,29.55,21,9,40,0.35
2013-3-16,48.0,43.3,39.3,43.7,40.6,37.3,95,90,80,29.55,29.28,24,10,37,0.73
2013-3-17,43.4,38.5,32.5,41.9,36.9,31.2,96,94,88,29.33,29.17,12,2,16,0.28
2013-3-18,46.7,37.4,29.7,42.0,35.7,28.6,98,94,81,29.37,29.22,9,1,13,0.07
2013-3-19,48.7,40.3,35.2,41.5,37.1,33.4,95,89,70,29.52,29.37,8,1,14,0.02
2013-3-20,43.2,38.4,34.1,39.5,36.1,32.6,96,91,84,30.01,29.52,8,3,12,0.00
2013-3-21,44.6,39.5,35.6,35.9,34.4,32.1,93,82,67,30.02,29.90,15,7,22,0.13
2013-3-22,44.5,38.6,35.6,37.2,35.4,33.6,95,88,74,29.90,29.71,19,9,28,0.39
2013-3-23,37.6,34.6,33.5,35.6,33.1,32.1,95,94,92,29.88,29.74,14,6,22,0.54
2013-3-24,34.0,32.6,31.4,32.6,28.6,24.6,95,86,69,29.95,29.87,15,6,22,0.00
2013-3-25,34.4,33.5,32.4,27.7,25.9,24.1,80,73,67,29.98,29.93,14,7,24,0.00
2013-3-26,35.2,33.8,32.6,27.7,25.6,24.6,79,72,66,29.95,29.90,13,6,21,0.00
2013-3-27,40.9,35.3,30.9,28.1,26.2,24.0,85,70,55,29.90,29.86,14,5,20,0.00
2013-3-28,42.7,36.0,29.0,31.8,26.8,22.8,91,70,55,29.96,29.87,12,4,20,0.00
2013-3-29,45.1,36.1,27.2,29.6,25.0,22.0,87,65,42,29.94,29.79,13,4,20,0.00
2013-3-30,42.7,36.8,32.5,31.6,28.3,26.3,81,72,55,29.99,29.80,15,4,18,0.00
2013-3-31,44.7,36.3,26.7,31.2,25.9,22.4,91,67,45,30.00,29.91,11,4,18,0.00
2013-4-1,45.0,36.9,32.3,30.9,27.1,23.4,89,69,45,29.91,29.84,18,6,25,0.00
2013-4-2,49.2,38.7,29.9,31.2,24.2,16.3,88,59,29,30.08,29.90,16,6,26,0.00
2013-4-3,44.7,36.9,30.5,31.7,26.0,23.0,92,66,46,30.08,30.01,17,7,27,0.00
2013-4-4,38.5,35.9,32.9,32.9,28.6,23.5,85,75,57,30.01,29.92,19,8,29,0.01
2013-4-5,47.0,39.4,34.4,30.8,27.8,21.8,81,65,39,30.14,29.92,18,9,29,0.00
2013-4-6,53.2,41.1,29.9,33.4,28.7,24.8,91,65,35,30.29,30.14,12,3,20,0.00
2013-4-7,52.1,41.1,27.9,33.9,27.3,20.9,91,61,30,30.29,29.88,11,3,17,0.00
2013-4-8,52.7,43.9,38.7,34.5,31.1,27.0,78,62,42,29.88,29.55,14,6,22,0.00
2013-4-9,48.7,42.9,38.0,43.2,38.8,34.3,95,86,75,29.56,29.39,13,4,17,0.14
2013-4-10,53.3,44.5,37.7,42.4,39.4,35.1,95,83,65,29.73,29.42,13,4,22,0.33
2013-4-11,55.5,46.8,42.4,47.7,43.7,41.1,96,89,68,29.50,29.36,13,4,22,0.17
2013-4-12,55.1,47.6,44.1,49.8,45.2,42.1,96,91,79,29.76,29.29,13,5,20,0.32
2013-4-13,52.7,47.6,39.0,51.0,45.1,37.2,96,91,78,29.91,29.76,18,7,29,0.17
2013-4-14,65.9,57.6,52.3,52.9,49.7,46.8,96,76,57,29.96,29.89,24,11,35,0.00
2013-4-15,59.7,54.0,48.7,50.1,47.5,44.4,88,79,68,30.07,29.94,18,8,24,0.00
2013-4-16,63.7,54.6,48.6,48.7,45.5,42.1,92,73,46,30.10,29.90,18,8,28,0.00
2013-4-17,64.5,55.5,48.2,52.1,49.1,44.7,96,80,61,30.09,29.79,21,9,32,0.00
2013-4-18,59.9,50.7,45.6,47.4,40.7,33.6,89,69,49,30.10,29.80,23,9,40,0.14
2013-4-19,57.6,49.7,42.9,43.7,39.5,34.3,91,69,44,30.51,30.10,14,5,20,0.03
2013-4-20,59.9,47.5,34.0,40.7,32.7,25.8,95,61,28,30.56,30.38,11,3,17,0.00
2013-4-21,58.9,47.1,32.3,41.6,35.1,29.1,92,66,35,30.38,30.04,11,3,16,0.00
2013-4-22,59.7,50.6,42.2,47.4,43.4,40.0,94,78,50,30.05,29.97,14,4,21,0.00
2013-4-23,71.3,58.2,48.0,50.7,47.9,46.0,94,71,45,30.23,30.00,11,3,17,0.00
2013-4-24,68.0,57.3,46.3,55.1,50.4,44.1,93,79,61,30.28,30.20,10,2,17,0.02
2013-4-25,72.3,59.4,50.2,56.8,50.8,47.2,96,75,46,30.26,30.05,17,4,25,0.00
2013-4-26,57.2,49.0,42.4,47.9,38.2,28.8,93,69,38,30.05,29.92,14,5,20,0.19
2013-4-27,52.6,43.3,35.2,42.6,36.6,32.6,93,78,53,30.13,29.92,16,4,22,0.12
2013-4-28,55.1,44.9,31.1,40.5,34.5,29.3,95,69,41,30.13,29.92,15,4,26,0.00
2013-4-29,58.1,50.2,43.3,43.0,37.5,33.3,90,64,42,30.20,29.91,13,4,20,0.00
2013-4-30,59.8,49.7,36.5,40.5,36.5,32.3,91,63,36,30.33,30.20,13,4,20,0.00
2013-5-1,62.9,50.0,37.7,43.2,34.6,25.8,91,61,27,30.33,30.18,11,3,16,0.00
2013-5-2,66.0,53.0,37.0,35.4,28.8,15.8,82,45,16,30.24,30.17,12,2,18,0.00
2013-5-3,69.0,54.2,37.5,45.3,39.3,32.9,85,60,34,30.20,30.07,12,3,20,0.00
2013-5-4,63.3,53.2,45.3,52.8,42.2,35.7,90,68,39,30.15,29.99,16,6,27,0.05
2013-5-5,68.0,56.4,44.6,50.5,46.7,40.3,92,71,50,30.21,30.15,8,1,12,0.00
2013-5-6,73.9,60.3,46.8,51.3,46.8,43.2,91,64,39,30.18,30.06,11,1,14,0.00
2013-5-7,74.8,60.8,42.8,46.2,41.8,31.7,90,55,22,30.09,29.86,13,3,24,0.00
2013-5-8,62.6,55.5,47.0,54.8,49.3,43.8,94,80,64,29.85,29.69,15,5,24,0.06
2013-5-9,58.2,50.3,43.4,47.3,43.0,39.6,92,77,53,29.84,29.67,26,10,40,0.06
2013-5-10,62.4,53.6,46.9,49.3,46.5,43.7,90,78,51,29.94,29.70,17,6,25,0.05
2013-5-11,56.7,49.2,41.3,50.4,43.2,38.8,94,80,59,29.93,29.81,17,5,31,0.08
2013-5-12,60.4,49.6,39.8,50.4,43.7,37.8,94,82,49,30.03,29.92,13,5,22,0.05
2013-5-13,60.2,52.4,46.2,50.2,43.0,36.9,95,72,45,29.93,29.82,17,6,30,0.06
2013-5-14,52.7,47.5,44.0,47.2,42.9,39.4,95,84,63,29.83,29.18,21,6,33,0.35
2013-5-15,57.3,47.0,41.7,46.6,41.5,38.0,91,82,52,29.56,29.12,21,6,34,0.09
2013-5-16,60.6,49.4,35.4,45.8,40.1,33.9,96,73,43,29.57,29.49,11,1,16,0.00
2013-5-17,54.3,48.6,39.5,46.5,42.3,36.6,95,79,67,29.83,29.57,10,2,14,0.00
2013-5-18,62.6,54.0,46.9,47.1,44.6,42.6,90,72,54,29.82,29.72,10,2,15,0.00
2013-5-19,66.2,56.6,45.4,50.5,47.1,42.4,93,72,54,29.92,29.79,10,2,16,0.00
2013-5-20,63.1,57.1,50.1,57.7,52.6,46.6,92,85,78,29.93,29.86,12,5,17,0.02
2013-5-21,59.8,56.8,53.6,55.8,51.6,48.5,91,83,74,30.09,29.93,12,5,15,0.00
2013-5-22,60.2,52.8,46.4,48.9,44.6,36.0,94,75,50,30.12,30.04,12,4,20,0.01
2013-5-23,53.1,45.7,40.6,43.6,38.1,33.6,89,75,48,30.04,29.90,22,5,34,0.13
2013-5-24,48.4,43.7,40.0,45.5,40.2,36.5,97,88,77,30.05,29.65,17,6,28,0.28
2013-5-25,61.2,50.4,39.8,44.5,40.5,37.0,96,71,44,30.19,30.05,10,4,15,0.01
2013-5-26,68.8,55.3,39.3,46.0,40.7,37.1,93,61,35,30.16,29.98,10,2,14,0.00
2013-5-27,64.5,53.9,41.6,45.2,39.2,26.4,92,60,29,29.98,29.64,20,5,32,0.00
2013-5-28,53.1,50.1,48.0,51.0,47.2,42.9,95,90,73,29.64,29.49,9,1,12,0.71
2013-5-29,56.9,51.3,43.4,52.8,48.3,41.8,96,90,74,29.79,29.58,9,2,14,0.02
2013-5-30,59.7,54.6,51.8,53.7,51.7,50.3,96,90,78,30.02,29.76,13,4,18,0.24
2013-5-31,72.1,60.5,50.8,57.4,52.2,48.1,94,76,52,30.15,30.01,10,4,16,0.00
2013-6-1,67.1,57.8,49.2,49.6,45.0,40.9,85,64,43,30.32,30.15,13,5,21,0.00
2013-6-2,66.7,56.7,43.7,47.2,43.4,41.1,94,63,43,30.44,30.32,11,3,16,0.00
2013-6-3,68.6,57.5,43.4,48.2,43.9,40.9,93,63,41,30.50,30.41,13,2,18,0.00
2013-6-4,71.1,57.9,43.2,48.8,43.9,39.1,86,62,38,30.44,30.22,14,4,22,0.00
2013-6-5,71.2,58.4,47.0,53.2,47.5,43.3,91,69,46,30.24,30.08,10,4,18,0.00
2013-6-6,73.0,59.9,46.4,53.8,48.4,43.5,90,68,47,30.20,30.13,10,4,18,0.00
2013-6-7,70.5,58.9,49.6,52.8,47.4,43.0,79,66,52,30.24,30.17,12,4,20,0.00
2013-6-8,66.0,56.7,47.3,48.8,45.9,43.6,87,69,49,30.23,30.07,12,6,23,0.00
2013-6-9,62.5,54.9,50.3,48.5,45.7,43.7,81,71,57,30.08,29.97,9,5,18,0.00
2013-6-10,60.9,53.4,44.6,47.3,44.3,40.6,92,72,54,30.02,29.96,7,1,12,0.00
2013-6-11,64.1,56.2,46.7,58.7,51.3,42.8,90,84,72,29.98,29.90,14,5,22,0.00
2013-6-12,61.6,58.8,55.9,58.7,55.5,51.4,94,89,79,29.90,29.81,18,8,29,0.10
2013-6-13,65.7,57.0,50.8,55.1,50.9,45.6,92,81,60,30.06,29.78,16,7,30,0.11
2013-6-14,66.5,56.7,47.0,52.5,48.1,40.9,91,75,41,30.07,29.79,16,6,24,0.00
2013-6-15,62.2,56.0,49.6,54.7,49.6,44.6,93,80,55,29.89,29.70,20,6,31,0.28
2013-6-16,63.4,57.0,51.6,51.9,49.3,47.3,88,76,62,29.97,29.89,9,3,18,0.01
2013-6-17,70.2,61.1,53.3,54.9,50.5,47.2,89,69,52,29.98,29.91,12,4,20,0.02
2013-6-18,70.3,63.0,54.8,62.4,56.1,50.1,90,78,70,29.98,29.91,8,1,13,0.00
2013-6-19,79.8,68.0,58.5,63.0,59.1,54.8,93,75,47,29.99,29.92,11,2,20,0.00
2013-6-20,69.1,64.2,57.9,62.5,58.9,54.2,88,83,74,29.97,29.80,10,2,14,0.00
2013-6-21,72.8,62.6,56.4,61.0,56.5,53.2,94,81,58,29.88,29.78,12,3,18,0.00
2013-6-22,64.8,57.5,52.9,57.7,52.7,49.2,95,84,69,29.87,29.67,18,8,31,0.09
2013-6-23,63.4,57.9,53.0,54.3,51.7,49.4,93,80,66,30.05,29.67,14,6,26,0.06
2013-6-24,62.8,56.3,48.2,49.3,46.4,43.1,94,71,51,30.32,30.05,14,4,20,0.00
2013-6-25,71.7,59.8,48.7,50.6,47.4,43.8,91,66,40,30.44,30.32,9,1,13,0.00
2013-6-26,70.2,60.7,47.3,53.8,49.2,44.8,93,68,48,30.45,30.37,8,2,13,0.00
2013-6-27,68.7,58.9,50.7,54.2,49.2,46.1,95,72,48,30.40,30.20,10,3,15,0.06
2013-6-28,71.7,61.4,53.4,63.8,57.8,52.0,96,88,71,30.19,30.07,10,3,18,0.04
2013-6-29,72.5,64.0,55.1,57.0,51.2,47.1,90,65,42,30.26,30.09,14,4,18,0.00
2013-6-30,80.0,66.8,56.2,61.6,56.5,50.8,95,72,43,30.26,30.08,11,3,18,0.00
2013-7-1,69.6,61.8,54.5,53.0,50.3,46.4,87,67,48,30.09,30.00,10,2,16,0.00
2013-7-2,63.0,57.2,50.8,54.8,50.9,47.1,89,80,63,30.01,29.67,16,4,23,0.00
2013-7-3,68.2,61.2,55.3,59.9,55.9,51.8,96,83,65,30.03,29.62,12,3,20,0.05
2013-7-4,75.9,63.9,53.1,63.3,56.6,50.2,93,78,58,30.27,30.03,11,3,16,0.00
2013-7-5,80.3,66.0,51.0,59.8,53.7,49.0,95,68,40,30.43,30.27,10,1,14,0.00
2013-7-6,83.1,67.5,51.3,61.0,55.3,49.2,95,68,41,30.43,30.35,8,0,10,0.00
2013-7-7,85.5,72.4,56.8,62.4,57.4,53.2,96,63,35,30.51,30.42,11,2,15,0.00
2013-7-8,82.0,70.2,58.2,61.8,56.8,51.3,88,65,43,30.53,30.43,13,4,22,0.00
2013-7-9,81.5,68.4,53.4,56.9,47.6,40.2,89,52,24,30.45,30.27,10,4,16,0.00
2013-7-10,76.8,65.5,53.9,58.9,52.3,46.1,80,63,46,30.30,30.25,15,5,20,0.00
2013-7-11,75.0,62.2,50.5,51.2,47.8,44.5,85,61,40,30.31,30.23,10,4,16,0.00
2013-7-12,77.8,64.9,52.9,58.3,53.5,49.1,87,68,47,30.31,30.22,7,1,12,0.00
2013-7-13,89.1,74.2,58.1,65.8,59.8,55.2,92,64,37,30.25,30.21,10,2,13,0.00
2013-7-14,88.0,74.9,62.0,64.5,59.1,54.3,89,61,37,30.26,30.18,12,2,18,0.00
2013-7-15,87.7,74.4,58.4,58.4,50.2,41.6,84,47,22,30.24,30.18,7,1,12,0.00
2013-7-16,88.2,74.6,61.0,62.2,57.0,51.5,84,57,30,30.23,30.17,7,1,12,0.00
2013-7-17,90.0,73.8,60.0,66.7,59.4,53.8,94,64,34,30.27,30.20,12,1,20,0.39
2013-7-18,84.8,72.7,60.2,63.6,58.8,54.5,95,66,38,30.32,30.26,12,2,18,0.00
2013-7-19,84.0,71.5,57.3,59.2,55.4,51.0,82,59,37,30.31,30.20,12,4,22,0.00
2013-7-20,76.7,67.9,60.0,60.2,58.1,55.5,90,72,55,30.25,30.15,12,4,20,0.00
2013-7-21,81.3,69.5,61.5,61.6,58.3,53.2,83,69,48,30.18,30.03,9,3,14,0.00
2013-7-22,90.6,75.5,62.5,67.1,61.6,59.1,89,65,36,30.07,29.94,13,2,20,0.00
2013-7-23,86.2,72.3,63.4,69.9,63.3,57.8,93,74,49,29.96,29.89,10,2,16,0.17
2013-7-24,80.8,68.0,57.6,61.7,58.0,54.8,91,73,47,29.98,29.93,14,4,22,0.00
2013-7-25,78.5,68.0,60.4,66.1,60.2,55.5,94,78,49,29.94,29.88,16,4,23,0.06
2013-7-26,81.4,68.4,54.3,59.5,54.8,50.1,95,65,41,29.93,29.85,10,1,13,0.00
2013-7-27,82.2,66.5,54.6,62.8,55.3,49.8,95,71,36,29.87,29.60,10,1,15,0.36
2013-7-28,75.5,66.0,57.1,60.7,57.5,53.9,95,76,49,29.77,29.61,18,7,28,0.08
2013-7-29,74.3,65.2,59.6,62.4,58.3,55.7,94,80,54,29.98,29.77,18,6,29,0.02
2013-7-30,70.0,62.7,58.0,64.7,59.3,56.1,95,89,77,29.98,29.86,10,4,17,0.07
2013-7-31,74.0,65.9,60.3,65.5,60.8,56.9,91,84,72,30.00,29.95,15,5,24,0.00
2013-8-1,90.2,75.9,62.1,67.6,62.9,58.8,94,67,38,29.95,29.68,15,5,25,0.00
2013-8-2,78.5,68.4,61.8,64.3,59.2,54.6,90,74,47,29.83,29.74,16,6,24,0.02
2013-8-3,76.5,66.3,58.5,59.2,56.3,52.4,92,72,48,30.10,29.79,18,6,29,0.01
2013-8-4,74.5,65.6,57.8,58.7,55.9,53.1,93,73,49,30.11,30.03,18,6,27,0.00
2013-8-5,72.2,64.1,58.5,61.8,58.6,55.9,95,83,65,30.03,29.77,14,5,24,0.67
2013-8-6,74.3,63.1,51.0,58.8,53.1,49.3,97,73,43,30.05,29.93,7,1,12,0.11
2013-8-7,73.2,63.4,53.3,57.1,51.9,48.1,94,69,44,30.05,29.92,11,2,15,0.00
2013-8-8,78.4,64.8,49.5,56.6,52.0,47.1,94,66,39,30.13,30.04,11,2,18,0.00
2013-8-9,75.5,66.2,60.3,63.1,54.8,47.2,95,69,44,30.20,30.03,12,4,18,0.05
2013-8-10,73.0,62.6,53.0,54.4,49.8,46.7,85,64,42,30.22,30.14,10,2,16,0.00
2013-8-11,74.8,64.9,56.6,58.8,52.4,47.6,87,66,41,30.14,30.02,12,3,18,0.00
2013-8-12,71.6,61.4,53.8,54.9,48.9,43.9,89,66,40,30.11,30.01,12,3,20,0.00
2013-8-13,70.0,58.4,48.1,55.6,50.2,45.6,93,76,45,30.22,30.11,11,2,17,0.00
2013-8-14,74.7,61.6,50.6,60.6,55.0,48.9,96,81,49,30.23,30.16,12,3,18,0.07
2013-8-15,74.9,66.5,61.4,65.9,61.5,58.8,96,85,66,30.16,30.01,15,5,23,0.03
2013-8-16,75.4,65.6,60.7,64.9,61.3,58.3,94,86,67,30.02,29.94,12,5,18,0.06
2013-8-17,68.5,61.3,55.0,60.8,56.8,53.3,95,86,66,30.00,29.74,19,6,29,0.02
2013-8-18,74.4,65.3,58.0,61.5,56.8,51.1,95,75,51,29.92,29.73,11,3,17,0.12
2013-8-19,74.7,62.4,50.8,55.1,50.5,47.8,93,67,43,30.32,29.92,9,2,16,0.00
2013-8-20,78.7,64.0,51.3,56.8,51.7,48.4,95,68,39,30.37,30.30,8,1,13,0.00
2013-8-21,80.7,66.7,52.7,59.2,53.8,50.3,95,67,38,30.31,30.15,10,1,18,0.02
2013-8-22,73.8,65.7,60.6,66.4,61.6,58.6,96,87,69,30.17,30.05,8,1,12,0.06
2013-8-23,80.8,69.1,59.8,63.9,59.3,54.1,95,74,44,30.05,29.86,10,2,16,0.01
2013-8-24,65.5,62.6,60.8,61.3,59.2,54.0,94,89,77,29.89,29.82,10,3,16,0.18
2013-8-25,75.6,66.7,56.0,64.2,59.5,53.4,95,79,56,30.06,29.86,10,4,17,0.05
2013-8-26,78.0,66.9,58.3,62.8,56.7,49.8,93,72,45,30.11,30.04,10,2,16,0.02
2013-8-27,75.1,62.0,49.5,57.1,50.9,46.9,96,70,40,30.14,30.06,10,2,16,0.00
2013-8-28,76.8,62.3,48.0,56.0,51.2,45.8,96,70,39,30.24,30.14,8,0,10,0.00
2013-8-29,77.3,65.1,55.4,58.7,55.5,52.8,95,73,45,30.21,30.14,9,2,16,0.00
2013-8-30,77.3,65.9,57.2,60.5,57.9,54.6,94,77,51,30.16,30.06,11,3,18,0.00
2013-8-31,70.8,62.4,52.9,58.9,48.3,40.7,95,63,36,30.42,30.14,12,4,17,0.00
2013-9-1,72.2,58.4,45.5,51.5,47.1,41.6,89,68,43,30.46,30.35,10,2,15,0.00
2013-9-2,78.9,64.5,50.5,58.9,54.6,48.4,94,73,49,30.37,30.30,10,2,14,0.00
2013-9-3,79.5,64.7,54.0,62.2,57.8,52.3,96,80,52,30.37,30.27,6,0,8,0.00
2013-9-4,83.7,67.2,52.0,63.5,54.5,45.1,97,69,28,30.27,30.01,9,1,17,0.00
2013-9-5,85.0,67.7,52.5,61.9,54.3,47.3,96,66,37,30.00,29.78,8,1,12,0.00
2013-9-6,64.7,58.5,54.3,55.5,52.3,48.2,92,80,60,29.84,29.72,8,2,14,0.02
2013-9-7,66.1,56.3,49.9,52.9,48.9,46.2,93,78,52,30.05,29.83,14,4,22,0.02
2013-9-8,65.0,54.4,44.6,52.4,47.9,42.6,96,80,53,30.07,30.04,12,3,20,0.07
2013-9-9,58.6,52.6,47.2,55.8,50.6,44.9,95,93,87,30.08,29.98,6,1,10,0.17
2013-9-10,61.6,55.3,47.6,52.4,48.6,46.0,95,79,63,30.18,30.07,12,4,21,0.01
2013-9-11,63.9,57.0,52.3,54.4,50.9,47.2,95,81,61,30.20,30.12,12,4,18,0.14
2013-9-12,66.5,59.0,54.1,59.3,55.9,52.7,97,90,72,30.13,30.08,6,1,9,0.07
2013-9-13,66.7,61.9,55.0,64.3,60.4,53.6,97,95,90,30.08,29.89,12,1,20,0.80
2013-9-14,57.3,51.7,45.1,53.4,49.0,43.4,96,91,75,30.09,29.91,13,4,21,0.05
2013-9-15,59.6,52.1,42.2,58.2,49.2,41.1,97,90,69,30.08,29.56,19,5,29,0.05
2013-9-16,60.2,51.8,44.7,48.3,42.3,39.0,88,71,48,29.66,29.60,15,5,29,0.01
2013-9-17,59.1,52.1,45.9,57.6,48.7,41.4,96,88,75,29.67,29.35,10,3,16,0.22
2013-9-18,61.2,54.6,46.0,54.4,48.6,42.3,96,81,56,29.89,29.42,12,3,20,0.02
2013-9-19,61.4,53.2,44.0,59.6,49.7,41.8,95,88,73,29.92,29.74,15,4,28,0.03
2013-9-20,67.9,56.2,48.0,52.6,49.3,45.9,95,79,54,30.20,29.90,8,1,20,0.00
2013-9-21,67.1,58.1,48.1,61.4,54.7,46.1,95,89,80,30.32,30.19,10,3,16,0.00
2013-9-22,69.8,62.8,56.7,62.2,59.7,54.9,97,90,75,30.38,30.32,6,0,9,0.00
2013-9-23,63.9,60.0,51.7,59.3,57.5,50.3,97,92,84,30.34,30.13,6,0,9,0.00
2013-9-24,73.3,57.5,48.8,62.7,54.8,47.6,98,91,66,30.12,29.93,6,0,7,0.01
2013-9-25,70.9,62.0,55.8,62.2,58.3,54.4,97,88,70,29.94,29.83,5,0,8,0.02
2013-9-26,65.7,59.4,54.0,59.9,53.7,50.6,94,82,61,30.06,29.91,8,2,13,0.00
2013-9-27,63.9,56.2,49.2,53.5,50.6,47.5,95,82,63,30.06,29.93,11,3,15,0.00
2013-9-28,64.7,58.3,52.0,57.9,52.9,49.1,95,83,62,29.92,29.74,13,4,21,0.00
2013-9-29,67.3,59.3,56.2,56.0,53.1,51.6,88,80,65,29.75,29.71,11,4,21,0.09
2013-9-30,65.0,59.1,54.2,56.5,53.0,50.3,90,81,66,29.78,29.68,8,2,13,0.00
2013-10-1,62.7,57.3,51.4,57.5,52.8,49.4,94,85,77,29.82,29.76,10,3,20,0.00
2013-10-2,70.4,60.7,56.1,62.4,57.5,52.6,96,89,72,29.88,29.78,10,4,15,0.11
2013-10-3,65.8,61.2,55.7,63.0,59.4,54.4,97,94,87,29.87,29.68,14,4,21,0.02
2013-10-4,68.7,62.8,58.2,62.8,59.3,55.9,94,89,72,29.95,29.69,17,6,24,0.03
2013-10-5,66.8,59.3,52.7,58.6,55.1,50.3,96,87,69,30.26,29.95,6,1,10,0.01
2013-10-6,68.3,55.6,44.1,55.7,49.9,43.0,100,83,53,30.31,30.26,7,1,12,0.00
2013-10-7,67.7,58.3,50.1,58.6,54.5,49.0,98,88,68,30.31,30.25,7,2,12,0.01
2013-10-8,69.3,61.2,55.0,59.9,57.4,53.4,100,88,69,30.29,30.24,9,2,15,0.00
2013-10-9,63.7,55.8,45.9,56.4,49.7,38.6,95,81,64,30.26,30.01,16,4,24,0.00
2013-10-10,54.4,48.4,43.1,41.6,39.2,37.0,85,71,58,30.15,30.03,15,7,26,0.00
2013-10-11,57.8,52.3,46.3,52.0,47.6,39.1,94,84,66,30.14,29.99,18,9,30,0.16
2013-10-12,59.1,53.0,47.7,52.7,48.0,44.7,95,84,61,30.13,29.99,17,4,31,0.11
2013-10-13,52.2,49.8,47.4,51.2,48.3,45.9,97,95,91,30.02,29.80,11,4,18,0.33
2013-10-14,52.2,48.5,47.1,48.7,46.7,45.6,96,94,85,29.81,29.72,10,3,15,0.21
2013-10-15,57.1,48.6,42.5,50.2,46.3,41.1,97,92,76,29.97,29.78,7,2,12,0.01
2013-10-16,61.7,50.1,40.0,59.1,47.7,39.0,98,92,74,29.98,29.69,15,4,23,0.13
2013-10-17,63.2,56.6,52.0,56.7,53.0,49.7,96,88,73,30.01,29.83,12,4,21,0.02
2013-10-18,63.7,56.6,51.3,58.4,53.9,50.1,98,91,77,30.03,29.77,15,3,24,0.00
2013-10-19,64.1,58.3,55.1,60.3,56.2,53.3,96,93,83,29.76,29.63,14,4,24,0.06
2013-10-20,62.4,56.3,53.3,57.9,54.2,51.3,100,92,83,29.75,29.63,18,6,29,0.73
2013-10-21,63.0,59.4,55.6,58.7,56.8,53.6,96,91,84,29.75,29.59,23,7,33,0.04
2013-10-22,64.1,60.1,54.8,60.0,57.6,53.1,96,91,84,29.60,29.32,19,8,97,0.25
2013-10-23,63.2,56.4,48.0,56.4,52.1,46.0,95,86,64,29.87,29.25,20,6,35,0.17
2013-10-24,63.6,52.7,41.3,55.2,49.2,40.2,98,88,71,29.98,29.82,13,2,18,0.01
2013-10-25,64.0,59.5,55.4,59.8,56.2,53.4,97,89,79,29.82,29.59,20,8,27,0.10
2013-10-26,62.6,59.0,57.5,56.9,55.1,53.3,94,87,80,29.71,29.49,21,9,32,0.06
2013-10-27,61.1,55.7,50.5,55.7,51.2,47.4,97,85,65,29.49,29.21,20,8,39,0.56
2013-10-28,60.2,52.9,46.0,58.9,49.3,43.5,97,88,70,29.61,28.90,29,9,43,0.67
2013-10-29,56.3,47.3,42.3,47.3,42.8,40.1,94,85,61,30.08,29.61,14,3,22,0.01
2013-10-30,58.2,49.4,39.7,51.5,45.2,38.3,97,86,70,30.18,30.07,18,5,24,0.01
2013-10-31,54.9,54.0,52.8,53.7,51.5,49.8,96,91,86,30.07,29.93,14,5,23,0.06
2013-11-1,56.4,53.7,51.3,54.4,51.4,49.3,96,92,89,29.93,29.56,14,4,24,0.05
2013-11-2,59.3,52.0,48.1,53.3,47.7,42.5,97,86,70,29.58,29.39,20,7,35,0.02
2013-11-3,54.4,47.8,44.4,45.8,42.4,39.6,96,82,66,29.60,29.05,15,6,24,0.36
2013-11-4,50.8,44.5,39.6,45.7,40.5,36.9,100,86,68,29.51,29.02,13,4,20,0.28
2013-11-5,53.9,47.7,39.1,50.4,43.9,36.4,97,87,69,29.54,29.27,17,4,30,0.24
2013-11-6,58.9,53.7,48.2,56.8,51.5,44.4,100,92,86,29.56,29.49,18,6,29,0.09
2013-11-7,57.5,49.3,43.3,55.6,45.8,41.0,94,88,76,29.79,29.54,11,2,21,0.01
2013-11-8,51.9,45.0,40.8,49.5,43.4,39.4,96,94,91,29.79,29.59,11,2,20,0.17
2013-11-9,45.6,41.8,37.1,44.1,40.5,35.6,97,95,93,29.78,29.62,7,2,13,0.17
2013-11-10,51.4,42.3,35.5,43.0,38.7,33.9,100,88,61,30.28,29.64,11,3,17,0.02
2013-11-11,55.7,50.1,40.2,55.1,48.4,36.9,100,94,81,30.26,30.14,14,5,22,0.09
2013-11-12,55.4,49.1,36.7,54.2,46.9,35.4,98,92,78,30.53,30.16,12,2,17,0.09
2013-11-13,52.1,42.2,32.9,45.1,38.5,31.9,100,87,68,30.58,30.22,13,2,21,0.01
2013-11-14,50.1,45.2,39.0,44.8,40.2,35.4,91,83,69,30.44,30.14,19,6,35,0.01
2013-11-15,50.1,40.0,33.3,40.3,35.2,31.5,94,84,66,30.55,30.44,10,2,15,0.01
2013-11-16,50.3,40.6,30.7,44.6,38.4,29.5,97,92,77,30.54,30.39,5,0,8,0.00
2013-11-17,49.2,46.8,44.8,46.3,44.9,43.0,95,93,89,30.39,30.03,4,0,6,0.00
2013-11-18,49.4,46.5,42.9,46.7,44.9,40.0,97,94,88,30.03,29.77,11,2,18,0.02
2013-11-19,44.4,37.6,29.0,40.1,33.4,27.0,95,85,67,30.08,29.82,13,4,20,0.00
2013-11-20,44.8,37.9,28.2,42.9,35.3,26.3,94,90,84,30.06,29.42,14,5,25,0.24
2013-11-21,46.9,41.0,35.7,40.8,37.2,33.3,99,87,67,29.95,29.43,17,6,26,0.04
2013-11-22,47.1,38.5,33.9,38.1,34.6,31.8,95,86,66,30.18,29.95,13,4,20,0.00
2013-11-23,45.8,40.2,32.6,39.5,37.0,31.3,97,88,75,30.34,30.18,12,3,16,0.01
2013-11-24,46.2,42.5,38.9,43.1,38.8,35.6,92,87,78,30.59,30.34,12,3,15,0.00
2013-11-25,44.6,41.2,38.9,39.3,37.6,35.9,93,87,80,30.71,30.58,9,3,13,0.00
2013-11-26,46.6,39.6,29.7,38.2,34.9,27.9,96,84,69,30.73,30.60,7,1,12,0.01
2013-11-27,51.2,45.6,42.0,48.4,43.8,38.2,96,93,86,30.60,30.50,5,0,7,0.02
2013-11-28,49.9,47.1,45.5,46.4,44.9,43.6,96,92,87,30.59,30.54,5,1,9,0.00
2013-11-29,50.7,46.5,42.6,44.6,41.6,37.3,94,83,69,30.54,30.21,15,5,23,0.00
2013-11-30,47.9,42.0,34.3,40.1,37.0,32.3,93,83,74,30.49,30.22,12,4,23,0.01
2013-12-1,48.7,41.7,32.1,43.8,39.0,30.6,96,90,82,30.58,30.46,5,0,8,0.00
2013-12-2,49.4,45.2,40.6,43.4,41.5,38.2,98,87,75,30.58,30.46,5,0,8,0.00
2013-12-3,43.2,42.1,40.6,40.2,37.2,35.4,93,83,78,30.46,30.34,6,1,10,0.00
2013-12-4,46.8,41.3,33.0,44.3,37.6,31.4,95,87,72,30.51,30.32,9,2,13,0.01
2013-12-5,50.2,41.5,32.6,45.4,36.3,31.0,95,82,65,30.50,30.06,21,7,35,0.02
2013-12-6,47.6,42.1,35.4,42.3,36.6,30.5,94,81,69,30.40,30.26,13,4,21,0.01
2013-12-7,47.9,44.8,41.8,44.4,42.6,39.9,94,92,85,30.38,30.28,9,3,15,0.00
2013-12-8,53.5,45.9,40.9,47.3,43.0,38.9,94,90,79,30.33,30.26,13,4,20,0.00
2013-12-9,52.5,44.6,38.6,47.8,42.5,36.8,96,92,84,30.42,30.33,12,2,16,0.01
2013-12-10,50.4,40.0,31.1,45.2,38.0,29.8,98,93,82,30.47,30.42,9,1,14,0.00
2013-12-11,44.3,36.9,32.6,43.8,35.9,31.6,100,96,94,30.45,30.31,6,1,8,0.00
2013-12-12,50.1,44.1,33.6,47.3,42.5,32.6,98,94,89,30.32,30.21,11,3,16,0.00
2013-12-13,54.1,50.6,44.2,50.3,47.1,41.4,95,88,76,30.20,30.02,14,6,22,0.03
2013-12-14,52.2,46.5,38.4,48.7,43.2,36.3,94,88,82,30.30,30.05,25,9,40,0.06
2013-12-15,54.0,51.6,46.0,52.7,50.2,44.3,96,95,91,30.17,30.00,98,10,100,0.39
2013-12-16,54.9,51.8,45.0,53.0,50.2,43.6,96,94,87,30.14,29.95,23,8,96,0.43
2013-12-17,44.8,42.0,40.5,43.4,40.7,39.2,100,95,93,30.28,30.00,8,1,12,0.20
2013-12-18,49.8,46.4,40.9,48.4,44.7,39.8,100,94,89,30.00,29.29,28,10,50,0.37
2013-12-19,48.1,42.9,37.2,46.2,39.0,35.6,95,86,71,29.88,29.33,17,5,24,0.08
2013-12-20,50.7,43.9,36.3,46.9,40.2,34.5,95,87,77,30.19,29.88,25,9,43,0.01
2013-12-21,53.0,50.7,45.9,51.1,48.5,41.6,95,92,82,30.05,29.71,26,13,43,0.36
2013-12-22,49.9,45.6,40.2,44.8,40.6,35.8,90,83,71,29.93,29.73,22,7,40,0.01
2013-12-23,52.6,48.1,40.4,50.9,45.7,36.5,95,91,86,29.93,28.84,37,13,56,0.95
2013-12-24,52.9,45.5,40.8,50.8,42.6,38.2,95,90,82,28.99,28.79,33,9,53,0.70
2013-12-25,43.8,39.5,37.1,40.8,37.6,35.3,96,93,84,29.18,28.94,14,4,20,0.16
2013-12-26,45.0,39.2,34.8,42.4,37.8,33.7,98,95,88,29.51,29.18,24,4,38,0.02
2013-12-27,51.8,47.9,43.0,50.6,42.2,36.8,96,81,67,29.27,29.01,27,12,46,0.17
2013-12-28,48.0,40.9,33.3,40.4,36.3,31.5,94,84,72,29.73,29.26,10,3,15,0.00
2013-12-29,46.9,39.3,32.7,43.2,36.3,31.2,96,89,75,30.09,29.73,14,4,27,0.00
2013-12-30,49.9,47.0,42.0,48.0,44.3,40.0,94,90,82,29.99,29.66,25,10,46,0.28
2013-12-31,50.8,45.6,41.3,47.6,43.4,38.9,96,92,88,29.85,29.55,21,7,36,0.32
2014-1-1,50.7,47.4,43.1,49.2,45.6,40.7,96,93,90,29.58,29.04,24,11,39,0.60
2014-1-2,51.1,47.2,42.2,48.0,44.2,40.6,95,89,78,29.46,29.07,20,7,31,0.16